Back to catalog

STARLINK-38139

AliveCommunicationsSSO
NORAD 100236·PAYLOAD·🇺🇸 United States

Launched Aug 4, 2026 from Vandenberg Space Force Base

Loading…

Next Passes (next 24 hours)

TLE

FreshSource: Space-Track

Epoch: Sep 14, 2026, 15:02 UTC

1 A0236U 26177Z   26257.62652210  .00021403  00000-0  39378-3 0  9993
2 A0236  97.2832 308.4059 0001715  83.4092 276.7355 15.49212841  6450

Track STARLINK-38139 in real time with AllMySat

Download on the App Store